GFSGBSN_850_rhum_057.txt.gz
RH
99 98 96 83 75 53 35 14 9 10 7 5 5 8 25 45 59 67 75 45 30 42 54 68 56 28 19 34 22 19 24 24 21 20 21 14 14 14 13 11 12 13 10 12 15 15 19
88 98 98 97 96 89 67 54 27 11 12 7 5 5 6 19 35 40 43 28 26 30 47 61 68 45 54 32 19 18 11 22 24 27 19 14 11 13 15 13 13 13 13 16 18 16 19
98 97 92 98 97 98 99 93 74 34 14 9 9 6 5 4 6 10 11 16 19 27 47 45 61 68 56 34 25 24 20 28 26 21 15 14 18 18 16 15 14 14 16 18 23 18 20
87 86 94 98 95 97 98 99 99 90 66 26 19 12 6 6 3 4 5 10 26 50 47 43 50 59 52 28 24 27 30 28 25 20 18 17 20 21 18 15 15 14 15 21 66 42 19
94 94 86 80 90 90 95 98 99 99 98 65 45 20 10 7 5 3 3 14 31 40 40 38 49 70 37 29 24 22 26 27 25 23 23 21 21 19 16 16 15 14 19 24 31 22 20
97 99 92 86 86 81 86 91 92 99 99 98 88 61 21 9 6 5 3 15 32 26 43 58 70 59 38 22 18 16 22 30 26 25 24 24 20 19 16 13 17 14 18 16 28 36 17
87 60 97 98 87 89 87 72 76 92 98 99 99 99 66 15 11 6 6 60 69 78 75 34 28 22 20 20 29 19 20 31 24 24 24 20 20 19 14 13 14 15 15 15 28 32 21
85 76 57 67 80 83 91 86 77 69 89 98 98 99 100 83 29 10 19 56 45 73 40 32 38 34 32 32 27 19 25 24 23 24 19 20 24 15 15 17 18 16 17 15 13 15 17
87 88 87 78 50 47 82 87 82 75 73 91 97 94 99 100 71 19 59 57 68 80 49 23 23 27 26 28 30 19 24 22 20 22 19 22 17 16 19 19 21 19 19 16 16 17 16
85 84 83 80 87 87 66 37 77 80 74 79 92 96 92 98 66 60 66 62 64 81 45 14 29 30 28 26 27 20 21 20 18 21 18 19 15 19 20 21 19 22 15 16 19 18 20
83 84 86 86 80 76 90 82 62 75 81 72 72 99 93 94 92 71 55 72 87 90 25 13 21 32 27 26 13 20 19 19 19 19 18 19 17 22 23 20 18 19 19 19 18 19 19
86 86 85 85 86 86 75 83 82 53 76 79 63 89 94 91 91 81 87 89 91 48 27 16 28 33 34 27 15 14 18 18 16 17 17 16 15 16 17 17 19 16 21 21 21 22 29
90 88 86 85 86 88 88 81 74 80 61 80 73 65 99 100 86 86 97 97 47 32 11 13 26 29 30 29 22 18 20 21 20 26 25 19 19 17 18 21 20 21 23 35 44 33 33
87 88 86 81 86 88 88 90 84 76 77 70 79 59 86 99 86 88 100 92 41 16 15 18 17 28 31 23 24 22 22 22 19 18 21 24 24 19 18 19 20 24 22 35 51 46 33
93 91 87 85 81 85 89 88 91 86 82 60 79 84 79 95 89 90 100 96 39 17 9 12 19 32 30 22 22 21 22 21 19 17 22 21 21 13 14 15 15 20 28 19 30 34 39
90 90 93 94 88 82 89 90 92 91 82 81 96 93 87 92 96 97 100 93 37 15 10 14 16 24 28 25 22 22 23 17 18 15 14 16 23 15 16 16 17 20 21 30 29 51 48
91 93 94 96 91 92 88 90 93 93 88 95 92 99 74 93 88 99 94 61 43 19 12 12 18 17 22 26 20 22 22 17 16 16 14 16 20 22 23 26 22 25 28 25 23 27 47
96 99 90 95 93 89 96 90 91 99 98 98 100 96 74 80 98 89 76 49 41 31 24 16 21 26 14 22 25 22 23 19 19 16 21 17 20 29 28 17 15 20 23 24 35 36 33
100 100 96 76 99 98 95 95 92 94 100 100 98 94 86 94 94 91 54 44 28 34 26 21 28 26 25 28 32 23 21 20 19 20 21 19 22 31 26 23 21 22 23 22 24 26 44
81 81 82 76 90 100 100 94 98 96 100 100 99 98 99 99 72 59 48 41 33 40 34 24 28 24 27 32 30 30 23 26 22 22 19 22 21 27 32 23 20 24 21 20 23 38 32
80 82 83 78 78 79 95 100 100 98 100 100 100 90 89 95 90 58 41 32 29 36 36 33 32 28 29 34 32 38 30 32 32 28 26 24 27 22 19 17 15 16 19 19 21 21 28
86 86 88 89 93 86 77 94 100 100 100 100 99 62 67 57 75 59 49 38 28 28 25 35 40 36 25 28 29 36 35 34 34 31 29 23 31 24 23 18 17 17 14 14 14 15 16
89 91 96 98 100 99 92 86 95 97 100 100 98 60 53 54 70 62 54 40 30 27 24 20 27 33 33 26 35 40 43 41 39 41 32 28 32 30 37 21 20 34 20 16 15 15 16
92 90 98 100 98 97 100 93 82 83 100 99 89 55 68 60 75 53 42 35 30 24 28 23 21 31 34 34 43 40 46 37 45 37 33 40 35 35 48 61 63 25 16 16 18 16 14
86 82 84 99 100 100 98 98 92 83 88 100 90 61 55 77 50 44 39 36 30 27 34 24 24 23 36 42 48 44 43 56 42 45 37 35 44 51 61 47 30 20 22 21 20 19 14
86 98 90 84 96 99 100 99 99 92 92 99 90 65 55 58 47 37 39 35 37 36 36 34 24 30 39 52 50 43 29 24 28 43 35 37 40 59 56 54 57 27 19 16 16 32 16
98 97 100 95 89 88 99 99 96 99 98 100 100 73 60 52 40 44 56 44 35 33 39 35 28 43 44 62 73 53 31 16 28 39 76 70 64 77 65 56 34 19 17 15 37 34 15
99 95 88 82 89 88 87 99 99 100 92 100 98 73 67 57 47 49 48 57 38 32 45 36 39 49 60 74 60 44 47 31 32 29 48 69 65 82 64 67 68 25 23 28 24 19 19
89 79 83 85 88 96 100 94 96 91 100 98 99 76 67 74 81 82 96 86 76 38 30 34 42 42 39 45 47 43 60 71 38 50 23 50 44 53 42 40 28 30 25 23 20 19 23

GFSGBSN_850_rhum_060.txt.gz
RH
80 78 91 93 97 94 86 60 25 14 11 7 6 6 5 5 9 20 28 23 16 19 24 22 30 48 43 40 31 26 21 19 21 18 20 17 13 13 14 11 10 11 11 9 10 12 12
93 95 79 90 94 93 96 97 88 58 32 12 7 6 6 5 4 4 4 5 8 13 16 22 37 41 73 48 23 19 21 17 22 19 22 17 12 11 11 12 13 11 11 11 23 25 24
80 79 76 93 93 95 96 98 97 99 88 47 16 8 6 6 4 3 3 3 4 8 15 32 47 51 75 46 18 23 25 33 23 25 20 15 13 11 16 15 13 12 14 14 30 25 28
96 93 90 85 71 88 91 95 98 97 99 98 82 39 15 7 6 4 3 2 3 18 31 34 42 55 57 19 29 27 24 26 24 21 18 14 13 17 17 17 15 14 13 18 35 24 20
89 99 99 96 94 85 76 81 85 97 96 97 99 98 72 18 7 6 4 3 3 13 23 28 35 63 39 25 28 25 21 22 22 20 17 17 17 19 18 18 18 14 17 16 32 29 30
98 90 89 97 99 92 89 82 71 75 90 94 96 99 99 89 26 10 6 4 10 23 61 66 72 52 40 20 20 23 20 21 22 21 18 20 19 20 18 19 22 17 14 15 22 30 28
94 98 94 90 79 94 97 91 88 82 66 86 96 96 98 99 89 42 9 7 51 92 91 51 32 29 19 22 20 17 17 20 23 22 22 19 22 23 18 16 15 15 16 16 23 19 21
94 91 89 84 73 55 79 88 91 85 78 65 86 91 95 98 99 84 34 83 30 62 50 28 40 40 32 28 28 23 14 22 24 24 20 21 27 18 14 13 17 17 14 14 14 18 22
89 90 89 89 86 83 77 39 54 85 81 78 65 81 91 92 97 68 47 46 53 59 54 28 19 16 16 24 27 23 16 20 23 24 22 25 19 16 15 17 19 17 18 16 17 23 17
89 87 86 85 87 86 88 87 80 34 60 74 72 73 95 90 72 75 51 43 35 64 61 16 11 18 14 17 22 23 18 19 19 22 20 20 16 17 18 20 16 22 15 15 15 21 21
87 88 88 90 88 85 88 85 82 88 68 36 77 62 76 98 83 85 79 57 61 84 34 8 11 22 21 18 17 20 20 19 22 20 19 22 18 18 21 18 16 20 17 19 18 18 20
91 92 92 90 89 88 85 84 84 78 84 61 74 77 67 81 88 60 83 71 77 68 34 13 26 25 24 21 19 16 19 18 19 19 18 17 14 14 15 16 15 16 18 20 20 21 33
93 95 89 87 88 88 89 88 88 85 76 81 48 79 76 81 88 72 84 77 64 44 9 10 25 26 25 27 23 19 21 22 24 29 28 19 17 13 14 18 18 20 22 36 57 47 42
94 94 94 93 89 90 90 88 91 89 78 84 78 69 86 84 81 84 95 99 58 22 21 11 12 22 30 26 27 24 20 22 21 18 24 27 30 17 16 19 21 22 23 38 49 79 52
90 90 91 94 96 92 91 90 88 92 88 78 84 81 97 95 81 88 99 96 50 24 13 16 13 18 28 24 23 26 22 22 19 19 25 28 26 14 16 16 17 20 30 21 32 54 65
97 95 91 92 91 92 93 90 88 89 91 82 90 95 96 92 80 98 98 79 44 23 16 13 16 17 26 27 25 26 23 18 19 17 17 22 29 19 14 14 16 18 14 33 30 58 55
99 97 91 90 90 90 94 96 91 89 93 95 99 98 85 86 94 99 96 71 48 25 21 23 22 17 14 19 22 23 24 19 18 16 16 20 25 24 15 18 19 19 23 28 27 31 47
97 95 91 89 92 91 92 96 97 90 95 99 100 98 90 86 97 96 82 61 42 28 21 25 25 20 21 17 27 32 21 20 15 16 22 21 24 31 23 16 16 18 23 24 40 37 40
94 97 96 91 92 91 98 98 100 99 97 100 98 97 92 86 94 92 70 55 46 38 27 20 26 22 23 25 36 26 31 17 18 18 22 22 28 36 28 23 19 21 21 26 26 27 40
96 91 85 76 98 99 92 98 100 100 100 100 99 99 99 98 64 64 67 60 54 40 30 21 26 22 25 36 36 36 30 21 20 20 19 26 28 31 40 39 24 25 21 23 32 53 40
90 86 81 77 74 82 84 72 100 99 100 100 100 99 81 96 87 62 50 41 48 42 32 27 26 25 28 53 52 47 33 34 23 23 23 30 37 31 24 20 19 21 21 19 20 33 54
72 75 79 81 80 80 74 75 78 100 100 100 99 94 65 49 66 66 58 50 43 36 29 30 31 30 28 48 49 55 48 54 47 26 28 28 36 32 36 22 20 25 21 17 17 17 18
79 84 87 87 88 85 82 79 73 98 100 99 100 80 59 57 67 74 66 54 44 37 28 21 23 32 33 36 41 87 83 64 33 32 38 36 36 39 47 28 25 35 23 18 17 16 17
95 97 100 99 96 88 87 86 80 74 100 100 98 78 88 78 64 70 52 48 44 36 36 22 20 30 24 28 55 67 74 60 49 37 37 44 39 40 59 62 57 27 19 16 18 16 13
100 93 87 86 94 99 99 96 90 80 84 100 100 81 70 92 50 54 49 44 42 37 36 29 21 20 20 50 65 87 93 79 49 43 41 40 48 87 69 57 37 27 22 22 22 22 16
94 94 96 93 90 79 90 100 99 90 80 100 99 90 70 73 63 46 45 41 47 45 41 33 24 21 22 51 79 96 86 45 70 42 44 52 52 68 81 69 66 39 24 16 19 35 18
99 97 91 88 90 92 87 98 100 99 96 98 99 100 87 70 60 43 50 50 40 41 43 35 30 41 48 62 73 68 54 28 36 47 68 79 86 89 77 86 54 26 22 18 39 39 20
96 95 98 95 94 96 84 100 100 100 100 100 98 95 100 84 60 69 73 66 47 39 49 34 40 50 90 82 70 58 65 38 29 21 58 76 87 93 78 89 85 27 23 30 29 21 20
86 81 88 100 99 100 98 100 100 99 99 100 100 82 99 86 88 78 68 57 65 62 45 34 39 62 58 73 53 50 75 68 38 52 21 52 50 68 65 56 37 30 26 23 24 30 26

GFSGBSN_850_rhum_063.txt.gz
RH
34 93 73 43 60 82 90 96 91 66 49 31 24 8 6 6 4 3 3 3 3 4 6 8 12 21 22 50 30 14 27 23 20 18 15 12 19 16 18 17 15 17 14 11 14 16 18
65 75 69 44 29 54 82 91 96 95 90 77 70 29 12 7 6 4 3 2 2 3 3 10 21 41 51 78 9 26 22 19 18 22 18 18 20 15 13 15 19 14 15 13 16 20 21
90 84 84 80 72 51 65 80 80 93 94 94 98 93 59 22 8 6 5 3 2 2 5 18 46 64 72 12 8 28 29 28 26 23 22 20 19 16 13 22 17 19 21 18 23 21 20
86 96 100 99 95 89 88 68 77 86 94 97 99 98 97 77 26 9 7 4 2 2 4 18 40 60 68 3 6 14 21 25 27 27 26 22 18 15 15 17 19 24 21 25 21 26 24
95 94 83 81 99 92 95 93 84 73 73 87 95 97 99 97 65 27 9 4 3 3 7 34 38 60 67 32 25 11 24 26 25 25 23 20 16 18 19 27 32 27 30 24 28 30 29
96 98 98 98 90 86 87 97 91 86 78 65 71 90 95 98 96 65 12 5 2 4 28 83 90 79 40 20 18 24 18 22 23 21 21 18 18 26 28 33 41 31 27 20 35 33 34
94 97 98 91 96 94 95 78 87 91 89 85 81 66 86 95 93 97 27 9 28 63 88 65 47 18 17 20 26 19 24 22 22 23 32 21 30 33 30 27 24 24 22 22 26 27 35
92 95 93 92 90 89 87 74 52 80 84 88 86 72 81 88 96 93 71 26 31 68 74 57 50 60 40 20 37 27 18 21 22 30 28 30 33 25 21 21 22 22 23 22 22 25 25
92 85 88 87 86 86 89 88 83 73 41 76 88 82 68 77 91 71 53 20 8 49 75 48 38 32 14 23 39 29 26 18 25 33 31 33 27 22 23 22 23 23 23 24 23 24 22
91 84 85 86 89 90 88 83 85 88 84 54 62 79 75 76 75 90 71 82 57 65 98 43 20 26 24 16 27 15 25 17 26 33 31 31 24 24 23 25 21 26 20 21 22 26 36
83 83 84 87 92 90 88 87 80 82 81 88 81 46 79 75 77 78 88 83 66 71 56 14 13 15 15 16 17 22 13 22 23 29 29 30 27 27 27 23 20 23 23 22 25 31 30
82 80 83 86 92 88 89 89 83 83 84 78 86 73 79 78 76 47 73 83 79 86 88 21 23 26 23 16 15 18 20 22 20 25 24 25 19 21 22 18 20 19 23 25 25 32 46
83 82 84 86 86 88 88 88 90 93 87 86 76 86 70 86 56 64 97 87 97 92 11 11 35 28 29 26 19 18 26 26 31 38 38 28 25 20 17 21 21 23 28 52 65 66 62
91 88 85 85 85 86 88 92 88 91 90 89 78 82 67 82 56 75 95 99 99 33 26 14 20 26 37 29 28 25 26 32 26 28 36 39 42 24 18 20 25 28 32 62 57 80 67
97 97 91 90 84 83 81 90 94 91 91 90 83 86 98 61 62 86 100 94 67 36 20 21 15 21 33 31 32 30 31 30 25 25 34 37 34 19 18 18 20 29 35 29 44 55 72
96 95 97 98 96 86 83 93 97 95 94 90 98 96 97 55 79 96 99 88 69 37 28 24 24 24 28 32 36 37 37 27 28 22 22 30 39 23 20 17 22 22 22 41 49 70 77
94 98 95 96 98 97 94 91 94 98 95 92 100 100 96 63 86 99 94 77 52 48 35 30 28 28 29 31 28 36 37 26 23 22 22 24 33 37 23 26 25 30 28 29 40 49 66
93 98 97 95 95 94 96 93 92 95 98 99 100 99 91 64 98 86 86 70 48 38 38 43 34 32 33 36 35 32 48 45 25 21 26 24 34 39 33 23 18 22 26 30 60 52 56
94 95 97 94 93 93 93 93 93 94 99 100 98 99 96 68 96 94 70 69 59 56 47 41 38 31 30 35 41 37 44 32 33 27 26 25 29 46 42 29 23 24 24 27 31 46 57
93 96 94 92 92 95 96 96 94 98 99 100 100 99 99 100 76 68 71 75 70 54 54 45 41 38 39 39 32 43 51 46 55 32 21 23 34 33 44 40 32 32 27 26 34 61 54
94 94 93 91 98 95 84 78 96 100 99 100 100 98 86 95 95 78 62 59 68 68 46 44 50 49 41 42 40 51 52 63 56 42 33 31 32 31 34 27 29 30 31 27 29 37 53
92 92 97 99 96 89 81 88 99 100 100 100 99 98 87 60 72 87 74 68 64 54 46 52 52 39 39 42 36 52 73 68 79 69 75 37 44 35 37 32 30 31 28 31 28 25 42
95 95 85 79 74 72 69 71 89 100 100 100 100 77 73 68 77 93 83 71 64 55 47 42 42 42 45 38 34 62 72 83 84 87 85 72 53 52 50 36 34 49 36 29 29 27 28
85 80 79 80 82 83 86 82 81 75 92 100 100 88 90 93 74 81 65 65 61 55 54 40 36 38 30 36 60 64 68 70 67 76 91 86 51 64 76 58 62 34 25 25 28 24 21
79 79 84 87 92 98 93 89 83 78 80 90 100 94 81 96 65 62 72 60 57 52 54 49 39 35 25 23 66 88 91 87 72 79 87 82 73 87 73 61 44 36 27 28 31 31 20
90 91 91 95 97 100 100 99 97 78 79 88 100 100 87 81 81 51 59 58 63 62 57 50 42 38 30 51 66 71 97 86 96 69 82 89 75 87 95 81 69 45 34 27 26 40 24
100 100 100 99 99 98 94 92 100 95 82 92 100 98 100 97 67 54 58 62 53 51 59 51 44 43 37 63 75 90 84 68 88 94 93 98 94 99 98 99 84 46 30 25 46 45 26
90 89 94 97 98 97 93 96 88 100 99 100 99 95 99 100 72 56 61 60 53 49 63 50 54 52 84 81 70 82 84 66 66 53 75 82 93 99 99 97 95 44 40 38 39 28 27
94 98 96 95 98 100 95 92 97 87 100 100 100 94 82 100 83 58 59 68 66 59 60 53 44 44 80 80 88 79 82 79 60 55 42 83 71 81 70 81 57 43 44 32 48 44 32

GFSGBSN_850_rhum_066.txt.gz
RH
89 75 60 36 28 37 60 53 59 81 81 98 91 64 28 10 6 4 4 3 3 2 3 4 8 13 14 43 11 8 12 19 24 21 17 12 19 19 22 17 17 19 18 16 16 17 30
97 93 95 90 78 75 51 57 66 50 70 80 99 96 89 48 13 8 4 4 3 2 2 4 17 28 49 84 6 12 13 24 23 20 21 19 14 16 19 17 20 19 22 20 18 19 25
75 90 95 93 98 90 81 80 56 56 36 71 90 96 97 88 60 19 8 5 4 3 3 4 19 48 74 12 3 13 30 30 27 31 24 23 16 22 19 21 17 20 25 23 19 20 24
76 54 49 59 92 90 95 92 92 76 51 40 65 79 94 95 88 53 16 7 4 4 4 6 27 56 51 2 4 4 9 29 26 28 34 21 22 24 22 18 21 25 26 28 22 24 24
92 94 91 92 88 84 79 88 96 96 87 75 64 64 79 90 90 78 32 8 5 5 5 14 55 76 43 16 20 17 11 18 22 27 28 24 27 27 20 27 35 32 36 31 27 27 27
93 88 92 94 94 92 90 89 90 84 92 93 83 77 73 63 86 92 49 8 6 4 5 27 97 80 26 14 25 27 24 17 24 25 26 29 22 27 32 36 41 37 35 28 27 28 35
96 98 95 95 94 90 86 85 84 71 69 91 95 88 81 68 84 85 54 18 24 64 86 65 76 43 20 19 24 24 24 21 25 25 33 24 30 31 34 33 28 29 32 33 27 30 36
99 96 91 88 84 88 90 88 85 84 74 46 89 91 86 75 75 78 76 50 60 81 72 40 53 72 46 40 54 20 28 26 26 32 33 32 35 26 27 29 31 30 30 30 24 24 34
99 99 91 81 83 83 82 82 83 86 89 84 66 57 92 81 68 65 74 56 90 99 86 51 36 41 27 33 58 31 22 25 27 33 34 39 31 25 27 28 30 29 30 30 26 22 26
100 96 89 84 83 84 82 87 88 86 82 82 88 71 62 79 53 65 82 98 93 94 86 48 42 26 34 29 38 8 14 25 26 29 31 39 28 29 30 29 28 35 25 25 27 31 39
92 91 82 82 80 82 84 91 90 88 85 80 82 86 78 45 55 79 88 87 83 88 17 14 25 14 25 22 16 18 8 25 27 30 33 42 34 33 32 30 26 30 26 26 26 31 32
86 82 81 78 82 85 83 90 92 90 84 80 84 81 88 59 60 47 56 64 88 92 68 30 20 26 27 21 18 22 25 25 24 24 30 33 25 27 28 26 26 23 24 28 33 38 51
84 76 81 81 80 83 87 88 90 91 88 86 81 85 92 72 62 64 72 89 96 94 20 15 34 30 26 25 19 18 27 30 38 36 33 31 30 25 23 28 25 27 32 50 59 57 59
53 67 82 82 85 90 91 88 91 91 92 88 87 83 82 80 55 72 86 99 95 38 24 18 22 20 37 27 23 20 26 34 28 33 38 38 48 30 25 27 29 32 35 60 56 71 57
72 70 76 92 92 94 88 87 88 90 93 90 94 98 90 71 59 82 98 98 72 45 26 20 17 21 21 33 34 26 30 31 29 29 42 46 42 25 24 22 23 31 41 32 50 59 71
77 71 76 91 93 98 97 94 90 91 91 94 100 100 94 66 65 88 99 90 69 45 36 35 36 25 33 32 45 50 41 32 31 28 27 34 44 29 24 22 23 25 28 43 57 63 70
71 82 86 90 92 98 97 97 95 90 93 100 100 100 96 79 74 100 95 74 54 48 45 51 43 46 39 39 36 37 52 40 36 26 28 28 38 38 29 29 29 31 34 33 44 61 73
75 82 88 92 92 95 98 96 99 98 99 100 100 100 89 87 96 82 89 66 56 52 44 46 46 47 46 39 42 42 38 33 36 38 36 29 36 43 34 28 22 23 30 36 52 56 65
86 82 89 89 90 98 99 98 98 99 99 100 100 99 97 93 94 90 68 65 63 59 53 49 48 40 36 45 49 46 40 35 48 54 48 36 42 51 40 34 27 31 29 28 39 52 52
87 87 88 92 94 99 99 100 99 100 100 100 100 99 100 100 78 71 68 69 64 56 60 58 56 48 47 46 45 49 44 41 51 50 49 50 49 39 45 35 34 33 31 27 31 66 50
92 94 93 96 98 99 99 99 99 99 100 100 100 98 94 95 96 83 67 62 69 68 56 56 58 60 64 63 47 47 47 69 57 65 66 68 59 40 32 28 29 33 34 29 33 39 55
98 98 98 98 99 99 99 99 99 100 100 100 99 99 99 76 74 88 79 74 67 61 60 61 62 48 48 63 53 57 48 65 72 69 74 76 82 47 46 35 27 29 28 34 34 33 38
98 99 99 99 99 99 99 100 100 99 100 100 100 90 74 74 81 96 84 74 64 61 56 54 51 55 58 52 41 39 56 73 76 79 87 85 92 92 72 43 34 50 40 37 34 33 39
98 94 94 99 94 98 94 94 99 89 93 99 100 98 98 95 75 82 71 68 67 63 66 47 46 58 46 41 49 66 73 71 78 82 76 83 89 97 96 59 69 41 30 30 34 28 26
87 82 82 84 90 84 78 78 81 84 95 100 100 100 98 88 80 64 66 67 67 61 63 61 55 49 42 39 58 68 75 70 77 78 94 73 89 100 100 70 51 46 33 33 32 35 28
84 85 84 82 79 80 84 83 77 76 83 98 100 98 99 90 87 64 61 64 74 77 72 61 53 47 49 57 68 65 79 82 80 84 82 87 87 87 100 97 71 45 34 28 28 52 28
98 98 98 94 84 83 85 88 88 88 88 98 100 99 99 99 83 72 64 67 58 65 75 62 56 53 47 78 90 86 62 58 77 92 98 98 99 96 98 98 86 62 48 32 49 43 33
99 99 98 98 99 100 96 91 97 98 96 99 99 99 98 99 93 71 59 57 61 57 71 60 63 63 81 82 83 79 89 75 75 68 85 93 95 99 100 99 92 49 46 50 52 40 35
89 86 87 89 90 93 99 100 99 98 100 99 100 99 99 98 99 84 69 51 48 48 56 54 59 54 56 80 88 84 84 89 74 73 50 80 71 89 84 76 57 46 55 49 51 52 51

GFSGBSN_850_rhum_072.txt.gz
RH
88 94 95 94 93 98 96 94 87 76 65 56 49 42 41 43 43 43 24 16 17 14 11 10 7 4 3 25 6 5 21 26 30 27 25 24 16 23 25 22 19 22 20 19 19 19 21
98 97 92 82 81 83 90 92 94 94 93 90 78 64 50 44 37 44 26 19 15 12 13 17 12 7 16 65 6 6 8 12 19 19 28 24 14 16 21 21 21 18 20 23 20 18 22
97 99 90 92 96 91 83 81 82 84 86 95 94 94 80 55 56 49 37 28 18 12 10 17 20 14 34 4 3 3 5 10 30 18 25 25 18 19 21 23 21 22 27 26 23 21 26
97 99 99 93 88 90 90 85 86 79 58 62 72 85 88 90 79 67 46 21 32 15 12 10 22 24 66 2 2 3 4 6 27 23 31 28 29 26 24 23 24 25 26 30 20 25 26
98 98 96 90 92 90 88 86 88 86 72 62 47 55 80 89 84 71 45 23 14 15 12 13 18 30 38 8 9 15 16 23 7 35 33 30 37 32 27 31 34 35 31 32 28 24 34
98 99 98 100 100 81 60 84 85 83 85 84 77 62 48 72 81 72 47 23 19 28 40 24 66 58 12 7 11 39 34 32 32 16 33 36 39 41 42 39 44 37 40 38 35 26 30
99 100 98 100 100 89 64 66 82 80 83 88 85 86 83 46 38 56 56 33 38 62 74 49 56 26 16 33 35 34 37 38 32 30 44 40 48 50 45 37 30 32 34 36 34 28 27
95 99 99 99 99 99 90 92 82 71 78 74 80 85 87 85 69 34 64 71 93 94 97 64 43 63 21 36 65 12 20 37 33 40 40 39 48 36 35 35 33 33 35 38 34 28 32
89 96 97 99 100 100 93 92 86 75 72 76 82 83 78 81 80 52 45 77 90 82 98 77 43 34 32 30 52 25 25 34 36 42 43 42 37 32 31 36 36 39 36 38 36 33 32
94 92 95 97 100 88 82 87 81 77 81 82 82 76 82 83 80 62 75 89 98 87 97 56 68 38 27 26 58 16 22 18 35 39 40 40 29 33 34 34 32 38 34 33 35 38 48
90 95 94 95 99 91 82 80 78 75 76 79 88 88 88 85 82 61 89 91 70 99 24 16 42 26 33 27 22 32 19 26 32 36 37 44 41 37 41 36 31 31 34 37 36 43 41
89 87 92 98 99 96 85 81 78 80 76 77 85 90 91 92 90 82 72 27 68 88 59 24 31 41 45 37 30 36 41 29 25 31 34 34 33 35 31 29 31 31 34 36 43 50 64
91 88 91 97 98 97 75 75 79 76 77 80 88 94 97 93 93 82 66 72 97 94 36 23 32 40 40 39 34 31 38 40 32 35 41 34 35 30 29 38 36 34 42 59 63 66 65
86 91 93 98 98 98 86 64 76 75 74 85 88 94 98 95 90 91 83 93 94 54 53 34 30 30 38 30 29 28 36 40 32 33 31 40 44 34 33 33 38 44 46 68 60 69 52
87 93 96 99 98 98 85 70 76 84 70 82 88 98 99 99 94 99 85 98 69 61 49 54 37 32 39 35 42 26 34 34 26 34 35 47 42 26 30 31 28 40 50 38 47 61 74
92 92 94 97 98 97 81 76 66 79 92 90 99 100 98 99 99 100 92 77 68 54 57 58 56 48 53 46 46 46 41 41 34 29 33 38 46 35 29 28 29 34 37 49 63 61 69
94 85 92 91 91 88 83 73 72 81 91 99 100 99 98 99 100 100 92 79 59 51 54 64 66 62 58 54 45 44 46 47 57 55 33 34 42 42 34 38 39 39 40 40 49 63 60
85 87 88 86 83 90 82 62 76 82 88 100 100 98 99 98 99 97 90 69 53 55 53 55 57 60 57 51 46 49 50 54 50 55 56 42 47 50 35 31 30 32 38 40 53 52 74
88 80 90 85 80 84 81 59 75 78 88 99 100 99 100 100 97 93 70 65 63 61 56 58 58 64 56 48 43 42 49 43 38 57 71 67 72 69 54 38 34 37 36 37 48 54 48
81 81 84 80 79 86 81 64 80 80 77 99 100 99 100 100 97 73 78 78 69 57 66 64 67 59 60 60 46 53 53 44 36 36 58 50 68 70 83 71 67 62 44 35 38 56 52
70 66 64 63 68 80 77 67 77 84 77 99 99 99 95 98 97 80 68 66 71 76 60 59 65 67 66 74 73 57 47 47 44 44 56 61 82 85 80 72 65 66 60 46 40 38 45
78 76 78 80 80 70 67 66 71 83 90 99 99 99 100 94 77 86 79 76 68 62 67 68 69 64 64 69 65 62 52 47 47 57 74 78 75 90 87 73 66 67 60 47 42 38 38
98 97 91 90 83 78 79 80 83 93 98 100 100 99 100 97 92 97 83 72 69 58 57 54 62 66 68 62 56 53 49 50 57 60 61 79 88 95 84 79 66 71 58 48 46 39 39
96 98 98 98 97 94 92 94 97 98 98 100 98 98 99 98 94 91 71 67 65 60 66 61 55 62 58 55 52 56 62 62 64 65 65 80 86 95 96 84 92 49 55 38 53 47 38
95 92 94 98 98 98 99 100 98 97 98 100 100 99 94 97 92 82 77 73 63 61 64 60 56 56 60 56 74 74 77 83 81 80 71 78 91 99 97 93 67 47 33 44 49 48 35
97 94 90 88 98 98 99 98 99 99 98 100 100 100 100 96 95 77 80 89 88 77 72 65 62 58 56 76 98 96 85 71 74 88 75 80 80 89 100 100 91 44 36 42 39 49 45
100 99 94 89 91 97 99 99 99 99 99 99 100 99 100 98 88 84 83 94 83 74 78 69 67 72 66 99 97 97 90 58 74 84 89 98 99 94 98 96 82 63 64 53 78 55 78
99 100 98 92 94 96 91 97 99 99 99 99 100 99 98 100 99 96 81 86 76 66 80 71 79 82 91 94 90 88 93 75 66 73 88 90 95 97 94 97 94 54 70 72 73 53 50
94 93 100 99 92 99 94 90 92 99 99 99 99 99 100 99 100 99 95 74 66 55 56 66 62 73 77 88 91 84 91 94 79 88 73 84 77 88 85 81 59 50 46 44 39 36 31

GFSGBSN_850_rhum_075.txt.gz
RH
95 88 81 88 90 93 92 94 94 97 90 83 84 81 68 49 36 31 31 29 27 23 15 15 12 9 6 8 2 2 16 33 37 27 29 24 24 25 26 22 21 23 19 20 17 18 23
99 99 98 95 93 85 75 70 76 75 84 81 85 88 86 86 63 43 34 29 26 27 28 18 14 11 18 30 6 6 7 12 32 34 30 28 18 16 23 22 21 20 20 19 22 21 23
98 98 96 97 97 98 98 96 87 88 88 78 61 62 73 82 84 76 52 32 23 20 22 21 19 21 32 5 4 3 3 4 12 18 17 26 22 17 20 23 20 23 24 22 20 18 20
96 98 98 98 97 97 94 90 90 88 92 74 63 53 50 56 63 69 69 37 25 25 16 18 19 38 36 5 4 3 3 3 9 32 26 26 24 22 24 24 26 25 27 25 19 25 33
90 93 94 97 98 98 100 94 90 94 90 80 81 75 65 41 35 47 51 29 20 17 15 17 33 34 31 10 8 16 15 8 6 9 34 34 34 31 29 28 28 31 23 27 21 21 36
88 93 97 96 98 99 99 98 92 85 77 85 87 82 80 77 78 61 30 20 30 48 45 39 79 54 17 12 16 41 38 40 35 12 41 40 38 39 37 31 32 28 32 30 24 26 28
97 92 96 94 96 99 99 100 93 86 81 79 80 80 79 80 81 78 71 27 40 57 61 67 70 30 19 23 29 40 41 40 33 28 41 48 42 48 40 32 25 26 29 25 26 26 26
90 88 90 97 99 100 98 100 95 88 85 76 79 76 80 77 79 77 77 73 98 96 94 68 38 57 24 57 56 43 37 33 36 32 39 43 49 38 36 35 31 29 30 28 26 27 28
90 89 86 91 98 98 99 100 96 86 84 74 70 75 80 76 79 76 60 55 98 79 99 73 67 65 42 33 51 29 28 38 35 38 38 38 36 35 36 38 37 34 34 30 26 29 26
94 90 88 88 91 95 99 95 90 88 79 75 82 80 77 87 83 68 86 96 98 67 92 51 68 57 47 43 53 19 22 20 39 37 39 35 29 37 34 34 35 41 31 29 30 30 26
88 87 88 88 94 94 96 91 84 83 80 80 74 76 86 94 95 84 70 72 58 89 39 20 46 32 36 27 25 37 28 25 20 38 39 39 40 37 39 34 30 30 31 30 29 31 34
89 89 87 93 89 90 98 94 91 79 78 78 77 78 94 96 96 80 81 72 48 91 66 30 37 43 41 36 34 44 41 30 23 31 39 34 34 31 28 31 28 29 32 36 42 41 52
88 84 86 88 90 90 96 97 92 60 75 78 81 81 96 100 99 85 82 63 88 87 39 34 34 44 46 44 38 38 46 40 33 32 42 38 33 32 31 33 33 31 37 45 56 58 47
93 88 78 84 83 93 99 98 91 63 73 77 80 91 88 99 100 95 85 86 87 51 54 39 40 42 44 33 33 33 42 41 33 33 24 34 44 32 31 34 38 40 38 48 45 57 43
87 84 84 91 89 90 93 92 89 74 72 77 84 92 96 89 100 100 95 98 60 55 51 60 48 46 42 37 42 33 37 39 30 29 29 35 31 27 32 30 30 43 48 35 46 58 58
96 98 86 82 84 83 86 93 92 79 70 80 95 100 91 84 98 100 98 74 66 55 57 58 65 53 55 46 42 45 46 54 56 33 34 38 41 33 29 29 30 33 34 47 50 52 50
86 85 85 81 82 90 86 89 89 81 72 82 98 98 92 88 100 100 96 80 52 41 47 62 64 61 56 52 45 47 53 49 54 57 37 35 41 40 36 34 35 37 39 42 40 50 44
87 89 84 86 76 87 89 81 82 81 74 89 100 99 97 91 99 97 96 74 51 47 51 55 56 60 57 51 44 40 52 48 37 45 61 57 47 46 34 30 29 33 36 38 50 49 62
89 94 91 84 82 73 85 82 79 84 72 98 97 98 99 100 96 96 98 80 58 54 57 57 58 60 56 53 48 47 47 42 43 36 34 52 64 57 46 38 41 43 37 36 45 48 48
84 81 81 81 74 70 86 86 72 83 67 99 99 99 99 100 97 79 95 78 71 56 55 62 63 61 60 59 50 53 50 41 38 38 36 52 68 89 68 73 68 74 61 55 48 55 45
77 73 72 67 70 77 82 82 70 81 65 98 100 99 96 98 97 87 71 68 70 68 58 60 62 62 62 66 64 55 44 44 41 43 59 53 61 58 66 48 51 57 62 56 60 52 52
98 93 90 85 72 66 62 56 59 76 64 99 99 99 100 97 86 98 92 93 73 65 65 63 70 65 63 64 54 48 51 49 47 49 52 54 75 77 78 54 45 60 57 42 52 49 44
98 94 95 98 95 88 78 73 68 69 73 99 100 98 100 98 83 99 94 77 73 60 56 52 53 58 61 65 60 56 54 54 53 57 59 61 84 88 76 70 68 64 46 49 40 41 43
98 98 98 98 96 98 96 85 76 71 71 89 99 99 96 96 96 94 83 70 65 62 61 54 54 63 62 59 64 60 63 68 65 62 59 62 67 94 90 87 81 39 41 45 47 42 37
98 98 99 98 96 93 99 99 93 80 73 88 100 98 97 95 95 92 74 78 62 62 62 56 61 56 63 66 97 82 72 81 73 68 67 62 67 98 94 85 56 38 29 36 47 38 61
99 99 99 100 98 95 95 99 98 98 82 96 100 98 100 100 92 79 77 72 78 84 81 64 64 83 94 100 95 85 81 66 67 70 70 74 74 98 98 89 81 43 40 53 39 56 60
93 93 90 95 100 98 93 97 99 99 98 99 100 98 100 96 85 83 80 89 70 75 88 77 87 99 95 100 92 83 74 58 62 77 79 86 99 95 87 91 70 56 48 58 60 50 54
91 92 98 97 98 100 98 96 99 98 99 99 98 97 99 99 98 80 74 83 83 84 88 83 94 98 100 96 90 85 86 68 60 59 78 75 75 81 82 85 81 51 59 56 46 54 53
89 88 90 95 94 100 97 95 99 100 99 99 100 99 100 99 100 99 84 78 64 59 74 85 69 81 80 82 82 75 82 84 67 66 73 77 74 76 72 64 54 59 52 42 44 52 52

GFSGBSN_850_rhum_078.txt.gz
RH
96 95 95 92 92 87 81 82 81 82 82 77 78 69 69 68 66 64 52 36 25 22 21 24 27 13 11 30 10 5 4 14 27 30 26 24 20 16 16 14 14 18 11 13 14 14 15
97 97 97 95 92 90 94 94 94 85 85 78 65 56 46 45 47 53 60 53 38 30 18 19 25 23 57 35 9 6 8 7 41 31 27 25 22 20 17 15 15 14 14 13 12 13 14
94 96 94 92 91 97 95 98 97 93 90 88 73 56 46 40 38 35 30 30 29 24 20 17 20 40 76 34 12 7 4 5 6 31 32 29 25 19 16 15 17 15 17 12 12 12 12
90 86 90 94 90 92 93 98 97 90 90 90 81 84 78 65 65 53 34 25 14 14 11 15 18 62 66 25 25 14 5 4 4 12 24 28 27 25 21 18 19 18 17 18 13 11 12
84 88 86 90 89 90 95 98 98 93 89 86 79 88 86 76 75 71 62 47 22 14 20 30 40 75 38 26 16 17 10 12 15 12 35 36 30 22 21 20 19 19 18 18 15 13 16
88 91 87 89 91 85 91 96 98 98 91 84 79 79 77 74 77 71 65 41 22 41 70 67 95 75 33 25 15 34 43 39 28 22 26 36 29 27 24 20 25 20 20 18 17 12 15
93 89 88 84 88 90 90 92 97 97 90 87 80 76 77 75 79 72 66 64 46 54 64 54 52 54 44 34 21 33 42 50 37 21 20 29 29 33 24 22 18 17 18 18 13 13 18
87 88 84 88 89 89 91 90 93 98 88 87 83 74 72 79 75 72 70 73 96 94 82 67 56 49 50 61 54 36 48 44 34 25 20 33 35 21 21 22 25 22 21 19 15 16 19
82 85 84 84 85 86 87 91 92 95 89 86 78 76 80 81 74 75 94 80 94 64 75 59 54 55 55 47 46 36 45 31 32 32 22 30 22 21 26 32 30 24 24 21 20 17 17
86 81 87 87 84 88 87 88 92 86 92 85 76 73 79 84 91 80 87 93 94 59 85 36 46 49 55 41 38 36 34 31 27 29 26 25 18 25 32 30 25 26 19 21 24 23 24
85 85 80 85 87 85 86 85 90 91 87 85 76 78 77 86 96 91 87 69 68 93 34 19 33 39 38 34 22 35 27 22 21 24 35 29 25 22 29 29 22 25 18 23 22 23 24
87 82 84 81 83 93 85 87 90 90 90 80 71 80 80 87 91 98 83 67 66 74 32 22 33 37 36 34 26 41 30 21 21 17 30 33 24 24 22 25 25 21 25 25 26 26 36
85 87 81 82 83 89 82 90 88 94 90 68 74 82 86 94 95 92 76 66 62 46 24 28 36 30 32 34 36 36 40 39 29 37 33 29 31 25 26 24 24 23 28 37 44 43 38
85 82 91 97 78 78 92 90 87 92 88 63 78 81 86 92 90 96 88 53 61 30 37 31 37 35 36 33 34 32 48 36 33 26 28 30 39 32 28 26 30 30 29 34 39 38 32
72 93 74 81 86 81 98 97 80 90 88 69 82 87 79 89 88 98 84 77 36 36 37 51 38 36 35 32 35 31 37 39 26 24 26 21 23 20 21 25 25 38 41 27 31 35 40
93 81 97 77 83 75 84 87 76 88 89 76 88 94 90 95 86 100 100 62 43 44 47 48 52 44 45 37 36 34 40 42 45 38 20 31 27 19 22 22 22 26 23 41 38 53 49
69 76 94 90 74 88 82 86 90 85 88 77 90 95 86 78 88 100 94 64 44 34 39 51 56 53 46 44 34 41 46 34 30 38 32 26 38 39 29 32 29 30 33 30 27 33 40
79 80 79 76 94 75 81 78 96 87 80 81 96 92 82 90 99 96 95 58 45 37 36 42 49 50 48 44 38 33 48 37 31 30 38 37 35 36 33 26 22 26 30 29 37 37 36
69 78 83 71 73 77 78 77 89 86 73 95 91 82 86 99 93 90 99 64 46 41 39 40 46 48 44 46 44 36 36 30 34 28 37 40 40 36 30 25 25 28 28 28 29 31 38
78 76 72 74 78 82 81 77 71 86 70 83 98 99 93 99 96 64 72 71 60 49 41 41 44 51 46 46 39 44 41 31 31 29 43 43 66 65 40 47 47 54 49 44 45 48 39
89 88 86 80 73 71 74 77 73 91 67 87 98 95 75 98 88 96 62 50 55 53 47 46 47 48 48 51 45 47 38 34 31 34 39 46 47 58 53 49 41 45 44 41 44 45 56
96 97 98 98 93 88 74 70 68 87 73 95 97 98 98 77 93 85 96 77 54 46 48 51 52 42 46 54 46 46 37 37 40 34 41 44 38 38 39 36 30 34 32 33 34 31 34
97 97 98 99 94 98 93 77 66 76 77 99 92 98 95 72 62 80 99 60 57 47 46 44 45 52 52 45 41 44 48 49 47 48 48 50 61 54 49 41 36 48 38 31 27 32 34
89 91 97 99 99 97 93 98 82 70 63 88 90 90 96 80 81 61 52 72 75 60 51 50 51 55 58 52 66 60 58 50 48 49 48 49 56 70 58 77 66 30 25 28 33 27 27
97 95 94 94 99 99 99 96 99 85 73 68 97 94 91 86 53 49 52 60 55 57 59 58 57 64 75 81 81 66 60 61 54 50 51 47 51 70 70 51 34 28 25 29 34 28 42
95 99 99 100 100 99 99 99 97 99 86 76 89 90 93 89 64 47 54 75 80 62 66 65 83 93 91 97 95 72 66 47 52 53 46 48 49 61 77 58 58 38 35 38 31 34 34
98 95 99 99 91 94 99 100 99 98 99 90 94 81 96 99 75 55 54 56 76 59 70 74 98 99 99 99 91 67 56 43 51 58 85 73 71 81 68 71 51 35 28 41 46 45 35
95 91 96 92 92 96 95 100 99 99 99 99 98 90 83 98 86 72 70 69 60 68 72 93 98 100 99 96 73 65 62 48 44 43 64 64 71 80 66 74 73 41 39 44 41 39 43
93 85 84 84 85 94 94 99 100 98 98 99 100 99 88 99 96 90 81 80 71 77 76 91 67 78 65 67 61 55 60 58 45 51 37 58 44 51 46 44 40 54 44 52 67 66 65

GFSGBSN_850_rhum_084.txt.gz
RH
86 86 83 86 86 86 90 87 88 89 91 92 90 80 66 45 39 34 28 28 17 16 13 10 10 12 11 41 38 19 19 15 16 11 35 23 22 18 18 14 13 12 11 10 10 10 9
85 86 89 90 85 81 84 89 87 88 95 88 89 92 90 67 59 51 43 29 22 16 16 14 11 11 44 46 19 31 21 15 17 26 31 26 20 19 17 15 14 11 10 10 10 10 9
85 84 85 82 90 89 84 82 81 89 91 87 84 87 83 70 65 57 50 36 21 16 14 14 16 17 77 20 15 26 21 20 17 16 24 26 22 19 17 16 13 12 13 12 11 11 11
89 91 82 79 82 92 90 85 81 84 90 88 92 83 75 67 62 53 38 29 16 13 12 16 18 56 62 15 26 28 28 31 25 16 18 26 26 26 19 18 15 16 15 18 13 11 10
79 90 92 86 78 86 92 86 84 80 86 89 89 83 82 81 60 49 39 21 10 24 22 25 40 81 40 25 32 29 26 27 26 23 17 11 15 26 24 26 26 19 23 19 16 11 11
88 77 84 87 88 86 77 77 80 85 80 90 90 85 82 77 58 44 37 17 31 52 58 89 80 59 51 26 19 21 26 26 28 25 18 14 17 22 27 28 36 27 23 20 19 13 12
88 87 78 85 87 84 89 90 94 87 79 87 89 83 81 75 50 45 54 61 45 62 74 50 36 40 26 23 27 28 29 38 29 24 25 17 28 33 25 27 24 22 22 21 16 12 14
76 82 83 71 81 76 76 85 88 85 81 81 86 82 82 69 53 49 73 78 62 68 63 46 34 31 27 24 23 23 24 36 33 32 25 30 30 21 19 16 21 24 26 24 19 14 14
70 84 79 73 92 79 77 82 79 78 84 80 86 78 82 65 52 68 76 68 70 76 64 37 29 27 28 29 28 23 20 31 33 41 45 55 40 27 28 24 20 20 27 24 22 17 15
91 89 68 75 78 85 85 80 81 91 83 77 79 78 80 64 80 82 68 67 65 78 70 32 30 27 32 31 27 25 22 28 34 41 53 80 49 43 50 46 37 32 21 20 22 24 29
86 73 79 87 81 78 73 87 88 94 86 82 78 80 77 76 63 81 82 70 69 74 53 22 21 29 28 28 23 22 23 23 36 48 58 64 58 52 58 44 43 43 25 31 32 31 27
82 81 83 85 70 66 71 73 81 86 89 82 79 82 76 68 93 77 78 76 75 87 54 16 22 25 26 25 25 22 22 25 34 36 42 53 45 55 58 40 32 44 43 41 35 32 40
79 80 79 74 74 77 79 79 76 81 86 84 86 79 72 92 86 95 83 80 84 56 14 16 21 20 19 18 18 21 28 29 41 58 56 46 46 39 33 56 35 30 44 80 74 53 48
87 79 69 75 74 73 75 80 90 83 87 90 83 82 70 74 74 93 94 74 63 22 20 17 20 20 21 19 23 26 24 31 29 34 35 70 66 45 39 37 47 38 34 70 71 62 45
89 81 77 79 79 84 85 81 93 91 83 96 86 89 84 57 86 89 91 80 36 27 17 22 22 20 15 22 25 27 31 32 24 28 37 58 61 29 36 32 44 53 46 30 50 54 78
75 90 76 81 77 72 79 73 87 90 80 99 100 79 70 63 77 91 94 65 38 20 21 25 26 19 23 24 28 27 32 36 35 25 24 32 59 34 31 29 34 42 37 64 68 77 91
83 73 71 76 73 64 67 71 88 83 87 97 100 85 57 55 87 99 96 53 35 27 22 31 26 26 26 27 28 26 66 49 30 31 30 28 40 39 42 48 55 45 66 75 66 58 98
85 82 76 75 70 73 76 74 85 86 87 98 94 92 69 61 96 94 88 50 36 28 22 23 28 29 33 30 32 31 63 40 32 30 42 37 44 45 39 39 25 36 43 55 93 87 61
88 89 86 82 75 65 75 76 70 79 91 90 89 67 58 96 85 87 60 49 39 35 28 25 27 25 25 30 35 31 31 37 35 33 37 36 41 50 45 37 27 32 42 44 55 63 96
89 91 93 85 80 72 64 74 82 71 89 90 99 83 54 86 82 61 68 54 46 33 30 27 25 22 25 30 28 34 33 30 30 30 28 37 46 52 83 80 81 45 33 39 46 65 77
93 98 99 99 87 80 73 66 71 69 76 98 99 79 57 80 72 76 61 76 50 40 35 29 31 27 27 34 31 32 27 25 24 31 29 35 58 45 38 65 66 63 68 71 40 49 57
90 92 98 98 93 92 87 72 66 73 75 96 99 71 50 63 54 52 55 60 61 48 37 39 34 26 25 30 29 33 35 39 53 36 33 34 49 41 41 36 33 38 49 36 58 56 38
90 90 92 96 98 96 98 89 81 68 78 99 98 78 61 70 46 52 63 42 42 39 39 38 37 26 29 30 55 51 46 47 47 42 41 42 45 44 50 35 41 54 40 30 26 24 26
93 91 90 89 90 92 96 99 94 72 70 94 92 77 82 70 51 54 35 41 42 38 40 39 72 67 46 56 52 46 43 38 38 39 38 46 46 47 59 47 77 38 26 24 29 24 22
96 97 94 90 95 98 95 96 99 89 69 89 89 95 67 77 47 37 36 37 36 57 57 57 71 68 57 54 61 61 57 56 51 43 42 41 47 62 64 53 36 26 21 21 23 23 30
84 89 90 89 91 94 96 96 98 99 86 74 86 84 98 76 63 42 34 32 40 58 80 62 57 66 64 64 75 72 61 51 52 48 41 41 47 61 63 63 56 26 18 22 19 32 37
99 100 99 98 95 92 91 96 99 99 99 95 83 83 96 98 66 53 48 42 40 43 60 72 70 72 82 99 95 66 60 39 57 58 60 61 63 75 72 69 42 24 28 28 41 59 43
97 96 96 99 98 94 97 93 99 99 100 99 93 91 86 89 74 61 52 52 47 42 72 74 98 96 99 100 96 59 66 54 50 41 51 58 78 78 67 69 72 28 29 43 54 49 48
98 99 90 86 95 94 97 95 96 99 100 99 100 88 96 92 67 66 60 60 68 70 98 97 93 81 60 70 56 57 84 65 51 50 39 62 47 55 48 48 32 48 53 52 50 50 51

GFSGBSN_850_rhum_087.txt.gz
RH
91 90 88 90 89 86 80 81 85 88 85 90 91 86 92 94 75 55 45 38 32 30 20 18 20 16 13 41 22 13 23 25 24 20 17 37 24 20 28 23 20 20 16 14 13 12 12
86 87 86 85 85 87 92 89 80 81 79 84 79 79 79 82 66 48 37 30 23 22 25 21 26 23 31 62 7 26 28 29 22 17 20 31 29 22 23 22 22 18 16 15 13 12 11
91 84 88 87 78 76 86 91 86 85 82 81 86 85 87 63 54 48 30 23 16 19 21 25 32 45 47 8 5 6 15 28 15 17 15 18 29 27 23 25 19 20 22 17 15 14 15
84 75 77 90 87 82 75 87 89 85 83 80 80 80 88 75 73 63 27 17 14 15 24 34 42 54 66 4 22 14 19 26 25 25 23 16 17 16 22 26 25 26 24 26 19 16 14
80 87 84 71 80 83 84 82 80 79 78 81 80 90 85 81 72 45 23 13 11 22 38 54 49 58 71 32 28 24 21 23 25 28 28 22 14 12 17 36 40 32 39 30 22 15 15
79 73 85 84 77 82 84 81 81 86 89 82 79 90 86 81 68 31 25 49 40 40 57 79 84 97 52 23 24 26 24 25 27 28 26 20 13 21 32 41 53 44 38 31 28 20 17
89 86 74 73 77 70 80 77 74 84 92 86 80 79 86 78 69 35 51 70 58 64 67 73 70 61 37 32 27 23 27 36 34 28 34 21 22 30 32 33 34 33 36 33 26 18 19
94 86 71 79 78 69 81 84 73 75 75 74 79 83 84 76 63 40 67 78 65 74 78 51 37 53 51 44 31 24 24 26 31 39 30 34 33 22 21 23 28 35 48 53 31 23 22
86 83 82 87 84 70 72 85 85 76 78 85 78 79 75 73 57 64 87 74 66 67 81 62 46 47 36 32 31 28 24 21 35 46 46 53 40 37 34 28 36 46 39 40 34 26 24
93 90 89 83 69 72 82 81 77 81 80 89 84 74 80 72 48 88 78 71 71 68 84 49 33 25 26 28 31 26 26 20 33 43 49 73 61 63 55 50 39 50 35 31 45 64 76
85 81 76 79 74 83 76 62 64 67 83 87 90 78 76 79 64 63 77 69 65 70 93 35 26 26 30 30 26 23 24 21 34 49 61 64 63 75 81 56 55 50 43 48 66 68 57
82 79 79 79 76 77 70 79 71 74 76 83 88 82 78 66 84 66 82 68 79 94 89 21 28 31 30 30 28 25 22 21 30 37 53 54 42 52 70 61 57 56 79 70 65 70 94
94 90 84 77 70 68 68 72 75 79 78 76 78 86 86 71 63 99 93 84 91 95 24 21 30 23 24 23 26 27 27 35 52 64 63 48 45 45 44 62 56 80 89 100 99 99 88
91 92 91 79 69 64 77 69 79 77 82 84 82 92 77 68 44 74 94 96 94 44 31 20 21 21 26 21 23 28 32 38 39 47 48 57 78 42 40 55 68 65 88 95 85 92 78
77 72 75 84 80 73 72 78 79 72 88 92 87 81 80 47 36 80 99 98 69 37 27 28 23 26 25 19 25 31 34 38 33 36 49 56 60 42 45 54 44 78 88 57 88 73 100
90 82 78 77 74 76 73 69 65 73 86 92 91 96 76 66 60 89 100 83 51 33 30 27 33 26 27 29 29 58 52 49 41 30 30 35 54 39 38 43 48 69 73 79 98 92 96
82 78 77 74 67 63 69 78 74 69 82 96 93 100 47 56 75 90 96 89 49 39 30 30 34 39 39 36 33 34 77 49 36 37 36 35 47 47 40 62 60 65 96 92 80 77 99
76 76 81 86 83 75 69 64 76 75 93 94 99 99 53 68 93 97 98 71 44 37 34 34 26 33 37 39 41 37 58 46 34 36 44 43 55 60 45 34 46 69 80 82 99 82 80
79 82 85 88 89 86 73 62 73 77 88 93 99 80 56 84 94 97 86 80 56 51 43 37 33 28 30 36 46 34 50 39 35 37 43 41 68 81 57 45 37 51 67 70 72 86 98
82 83 88 92 98 91 78 66 64 74 77 96 96 99 68 91 100 87 76 66 61 43 41 35 34 33 35 37 34 44 39 42 34 34 32 39 58 65 86 91 96 86 68 66 91 99 78
87 91 92 92 95 98 85 74 73 66 80 98 98 95 72 94 93 97 84 96 89 56 37 34 37 37 40 46 40 42 39 35 39 32 37 44 66 60 50 44 83 87 95 83 89 78 96
89 86 87 90 93 97 97 80 76 66 78 99 98 90 58 62 65 75 72 75 63 55 52 58 50 39 38 42 39 44 55 56 61 47 42 38 58 55 56 39 38 70 61 68 74 86 79
90 90 86 89 92 95 95 93 82 69 76 98 89 70 93 78 70 72 88 63 55 51 47 41 47 74 75 60 56 56 53 52 55 60 58 54 56 62 69 47 45 65 51 62 61 59 54
91 90 88 91 94 92 95 96 98 91 75 75 88 82 84 93 70 64 54 49 51 48 58 46 48 73 66 59 55 52 50 52 52 56 50 58 63 58 74 57 78 48 34 32 33 42 40
90 91 91 88 88 90 93 98 99 98 93 80 76 90 85 96 63 54 49 43 40 43 56 61 60 63 62 57 79 66 68 63 59 51 52 52 63 79 83 75 49 34 27 29 29 55 55
93 96 97 93 87 88 92 92 99 98 99 98 71 84 90 88 81 58 52 51 69 69 65 62 62 70 81 99 84 81 84 68 59 55 46 50 61 77 83 81 76 43 29 28 31 72 50
99 99 100 99 99 94 93 93 94 98 99 99 95 72 98 90 78 66 68 71 77 60 100 72 72 97 98 96 97 92 82 48 71 76 76 72 76 84 84 93 71 37 33 30 54 78 57
98 99 96 97 94 93 99 98 98 98 99 100 97 80 87 87 78 71 65 69 71 91 98 83 88 98 94 99 97 85 85 70 67 60 82 73 84 93 87 86 81 46 40 61 72 60 56
99 88 86 90 94 92 91 96 96 100 99 100 100 90 84 93 74 74 65 56 60 78 97 99 100 99 93 87 83 84 95 89 94 94 74 93 66 80 68 69 87 82 72 70 61 63 66

GFSGBSN_850_rhum_093.txt.gz
RH
64 84 76 81 81 80 85 81 75 73 85 87 86 81 73 71 72 68 55 35 23 22 26 25 25 32 35 29 9 8 20 21 20 25 28 22 29 26 25 27 32 38 31 26 23 22 22
83 83 82 74 66 66 76 75 81 77 75 77 76 80 78 79 78 78 75 60 36 24 21 24 27 42 83 85 7 15 8 7 16 30 30 42 36 29 22 24 30 27 29 28 26 25 23
86 65 62 83 83 77 71 66 75 79 76 82 80 82 81 82 80 75 78 68 42 17 18 22 34 61 100 22 7 8 14 17 18 21 28 34 32 33 31 31 24 26 31 29 29 24 24
67 88 88 81 78 75 71 67 62 71 75 75 69 87 77 80 80 76 70 61 23 13 20 35 51 86 91 6 6 3 6 5 6 13 27 25 26 25 17 17 29 34 34 41 28 28 24
91 80 86 86 82 78 71 71 72 64 71 72 72 71 69 71 74 71 66 38 14 54 46 54 75 91 80 21 13 18 27 23 17 23 27 27 29 25 15 27 44 43 52 43 35 25 23
98 86 86 87 82 79 73 80 77 73 71 82 75 70 69 67 71 70 61 31 57 73 61 66 98 95 44 30 43 33 28 28 25 28 27 27 28 20 35 49 54 55 53 44 40 28 34
99 100 98 96 90 84 81 80 75 73 82 80 75 71 66 65 73 69 50 70 74 69 83 89 84 78 52 58 48 34 25 29 30 30 39 26 33 35 27 39 38 42 46 50 42 34 43
72 55 59 76 80 79 82 77 75 70 72 77 72 67 63 68 68 66 52 100 99 98 93 74 66 73 65 65 73 37 33 27 41 48 37 39 38 27 23 27 32 38 45 44 44 40 38
76 77 86 85 80 85 82 74 72 73 78 69 64 64 63 77 71 62 68 87 89 98 91 69 57 63 57 50 65 48 41 25 28 46 46 54 43 36 29 26 30 31 38 43 45 42 46
95 85 81 76 73 73 78 76 71 69 71 65 67 68 65 83 73 59 61 80 82 99 92 63 63 52 46 34 50 22 38 24 28 38 46 46 50 61 67 66 57 70 41 43 45 63 63
98 78 73 75 72 75 72 70 75 68 64 63 69 74 72 85 84 68 65 62 83 90 96 29 49 36 42 28 27 36 29 25 40 56 59 62 75 74 73 69 66 68 51 52 48 77 89
56 61 70 74 78 67 65 66 65 60 64 64 68 69 76 70 71 70 65 73 93 86 79 45 33 42 40 35 32 31 30 26 27 54 53 52 58 61 58 60 65 60 62 62 74 81 89
82 76 80 80 79 70 70 70 71 68 75 72 73 68 79 85 69 78 69 71 95 88 39 42 40 38 38 42 37 28 35 45 49 61 66 54 60 56 64 72 66 76 81 97 98 96 86
76 74 71 75 71 75 74 69 64 65 64 74 70 68 72 77 68 82 88 98 90 48 49 42 38 40 49 41 40 31 37 46 46 48 62 70 50 59 58 61 76 92 77 91 88 93 85
78 78 72 78 64 69 73 73 51 58 62 57 64 68 66 51 64 76 84 97 68 59 68 73 44 44 39 30 36 35 41 42 44 45 46 59 56 45 54 52 58 81 89 80 100 100 99
81 81 72 69 69 72 76 79 77 62 69 75 74 72 55 80 78 89 99 93 66 53 61 69 54 42 51 43 49 48 58 52 45 44 33 41 51 49 57 59 60 77 81 99 100 97 96
82 75 73 75 73 71 78 81 82 75 66 81 90 94 62 80 92 84 98 89 61 48 60 95 57 45 47 49 45 69 75 58 38 45 36 43 46 50 64 73 83 83 91 96 97 100 98
80 73 78 76 82 82 78 84 88 78 68 81 98 91 82 98 91 94 95 78 70 59 57 92 58 45 46 48 48 63 85 60 35 37 47 39 61 70 57 41 59 77 79 91 100 98 93
83 84 70 79 83 79 80 88 93 79 72 86 97 82 71 90 98 97 78 77 58 64 60 92 81 48 44 51 51 59 58 46 36 38 41 42 64 83 69 66 72 85 86 92 89 98 98
89 78 71 83 81 83 82 86 96 82 70 87 97 98 81 90 98 95 81 67 77 55 52 58 62 50 48 50 47 47 53 52 43 38 37 43 60 73 91 87 69 93 80 82 96 100 95
88 76 81 83 81 86 85 86 97 90 75 87 99 94 95 97 98 98 86 81 90 78 57 56 60 70 74 76 65 61 57 48 48 45 40 55 64 63 65 68 61 75 79 74 84 94 100
98 82 78 83 86 89 85 84 98 90 84 91 96 97 90 86 78 100 96 85 86 90 64 61 59 62 72 86 82 84 76 59 58 56 51 55 60 58 64 56 62 69 47 43 65 74 86
97 84 87 85 83 87 85 89 99 95 87 94 88 92 90 79 80 81 95 96 96 89 70 56 61 66 67 70 68 62 64 64 62 59 60 59 64 71 75 56 53 55 51 50 67 64 77
99 94 86 83 88 86 85 90 99 99 92 80 76 83 83 92 78 68 64 58 67 68 72 53 56 63 68 65 56 51 50 60 64 65 62 66 68 74 86 58 70 39 29 68 66 80 74
99 93 90 91 94 77 82 83 98 99 100 99 86 79 80 100 83 73 68 63 61 60 67 74 76 82 73 67 73 73 71 64 62 68 69 66 72 80 84 73 48 42 44 55 60 61 70
99 97 90 91 85 83 90 83 88 98 99 100 98 93 80 94 82 69 68 62 73 91 84 76 74 81 75 96 96 86 80 68 68 59 62 75 69 78 91 85 76 52 59 58 64 91 69
100 97 91 96 96 94 93 91 90 95 99 100 98 100 93 96 66 69 80 83 79 94 96 90 90 90 94 98 95 97 85 63 72 71 73 89 91 90 87 82 74 51 77 66 75 80 72
98 97 89 97 98 98 95 88 98 99 96 100 98 99 98 88 69 74 68 65 69 97 95 88 85 92 95 97 96 89 94 74 77 62 70 80 97 98 92 93 89 83 75 80 83 80 81
100 95 93 99 98 99 95 99 99 99 98 100 100 99 100 99 79 84 69 63 70 79 77 82 92 99 100 100 97 96 98 94 89 91 80 94 85 96 79 76 86 92 92 96 92 91 91